This demonstration page uses our WeatherBlox Daily Observations layout. Learn more.

38.89511, -77.03637

Hourly Observations for June 27, 2020

Temp ( °F °C ) Dew Point ( °F °C ) Humidity (%) Winds ( mph kmh ) Pressure ( in mb ) Visibility ( mi km ) Precip ( " mm )
12:52 am 00:52 Partly Cloudy 77 25 64 17.8 64 64 S 7 11 29.93 1014 10 16.0934 0 0
1:52 am 01:52 Mostly Cloudy 75 23.9 64 17.8 69 69 SSW 6 9 29.93 1014 10 16.0934 0 0
2:52 am 02:52 Cloudy 76 24.4 64 17.8 67 67 S 6 9 29.92 1013 10 16.0934 0 0
3:52 am 03:52 Cloudy 75 23.9 65 18.3 71 71 S 5 7 29.92 1013 10 16.0934 0.001 0.001
4:52 am 04:52 Partly Cloudy 76 24.4 64 17.8 67 67 S 5 7 29.91 1013 10 16.0934 0 0
5:52 am 05:52 Mostly Cloudy 75 23.9 65 18.3 71 71 S 5 7 29.91 1013 10 16.0934 0 0
6:52 am 06:52 Mostly Cloudy 76 24.4 65 18.3 69 69 SSW 6 9 29.91 1013 10 16.0934 0 0
7:52 am 07:52 Mostly Cloudy 78 25.6 69 20.6 74 74 S 8 13 29.91 1013 10 16.0934 0 0
8:52 am 08:52 Mostly Cloudy 81 27.2 69 20.6 67 67 SSW 12 19 29.89 1012 10 16.0934 0 0
9:52 am 09:52 Mostly Cloudy 84 28.9 66 18.9 55 55 SSW 15 24 29.87 1011 10 16.0934 0 0
10:52 am 10:52 Mostly Cloudy 87 30.6 66 18.9 50 50 SSW 13 20 29.86 1011 10 16.0934 0 0
11:52 am 11:52 Mostly Cloudy 89 31.7 65 18.3 45 45 SSW 12 19 29.85 1011 10 16.0934 0 0
12:52 pm 12:52 Mostly Cloudy 88 31.1 67 19.4 50 50 SSW 15 24 29.85 1011 10 16.0934 0 0
1:52 pm 13:52 Mostly Cloudy 90 32.2 65 18.3 44 44 SW 14 22 29.83 1010 10 16.0934 0 0
2:52 pm 14:52 Mostly Cloudy 91 32.8 66 18.9 44 44 W 13 20 29.82 1010 10 16.0934 0 0
3:52 pm 15:52 Mostly Cloudy 92 33.3 66 18.9 43 43 SW 16 26 29.79 1009 10 16.0934 0 0
4:52 pm 16:52 Cloudy 91 32.8 66 18.9 44 44 WSW 15 24 29.77 1008 10 16.0934 0 0
4:59 pm 16:59 Cloudy with Nearby Thunderstorms 90 32.2 66 18.9 45 45 SW 14 22 29.78 1008 10 16.0934 0 0
5:19 pm 17:19 Cloudy with Light Rain 88 31.1 67 19.4 50 50 WNW 20 31 29.8 1009 10 16.0934 0.001 0.001
5:52 pm 17:52 Cloudy 83 28.3 72 22.2 70 70 N 10 17 29.78 1009 10 16.0934 0.01 0.254
6:52 pm 18:52 Cloudy with Nearby Thunderstorms 80 26.7 70 21.1 71 71 NNE 5 7 29.79 1009 7 11.26538 0.01 0.254
7:13 pm 19:13 Cloudy 79 26.1 72 22.2 79 79 Calm 29.79 1009 10 16.0934 0.001 0.001
7:52 pm 19:52 Cloudy 81 27.2 74 23.3 79 79 Calm 29.78 1009 10 16.0934 0.001 0.001
8:52 pm 20:52 Cloudy 80 26.7 74 23.3 82 82 Calm 29.78 1009 10 16.0934 0 0
9:52 pm 21:52 Cloudy 78 25.6 75 23.9 90 90 N 5 7 29.79 1009 10 16.0934 0 0
10:52 pm 22:52 Cloudy 78 25.6 75 23.9 90 90 N 3 6 29.79 1009 10 16.0934 0 0
11:52 pm 23:52 Cloudy 79 26.1 75 23.9 88 88 Calm 29.78 1009 10 16.0934 0 0

Powered by AerisWeather